Location: Newark
(39.0622°N, 106.5590°E)
Time: 01:55:10
(UTC+00:00)

Vanguard 2 Rocket - Pass Details

Date: 02 February 2020
Orbit: 554 x 3327 km, 32.9° (Epoch: 21 February)

Event Time Altitude Azimuth Distance (km) Brightness Sun altitude
Rises 20:51:10 0° 254° (WSW) 2,852 - -36.8°
Reaches altitude 10° 20:53:37 10° 246° (WSW) 1,851 - -36.3°
Maximum altitude 20:57:16 36° 178° (S) 894 - -35.6°
Exits shadow 21:00:15 15° 116° (ESE) 1,629 8.7 -35.0°
Drops below altitude 10° 21:01:09 10° 111° (ESE) 1,976 9.3 -34.8°
Sets 21:03:51 0° 102° (ESE) 3,081 10.6 -34.3°
